51,2013-07-17 19:29:11,1374089351,55.20787,-10.10259,2,2,2013-07-17 19:28:00,1374089280,19.16,10,15.8,0,4095,55.202,-10.0744,76,44
52,2013-07-17 20:06:09,1374091569,55.18217,-10.16442,2,1,2013-07-17 20:00:00,1374091200,16.99,9,15.8,30,4095,55.202,-10.0744,76,44
53,2013-07-17 21:06:11,1374095171,55.18737,-10.10259,2,2,2013-07-17 21:00:00,1374094800,15.12,14,15.8,30,0,55.1848,-10.0792,16,44
54,2013-07-17 22:06:16,1374098776,55.20787,-10.10259,3,1,2013-07-17 22:00:00,1374098400,15.09,12,15.8,30,60,55.1848,-10.0792,16,44
55,2013-07-17 23:06:12,1374102372,55.16348,-10.02979,3,1,2013-07-17 23:00:00,1374102000,15.05,13,15.8,30,120,55.1848,-10.0792,16,44
56,2013-07-18 00:06:11,1374105971,55.21303,-10.04073,4,2,2013-07-18 00:00:00,1374105600,15.04,12,15.8,30,0,55.1992,-10.0556,58,44
57,2013-07-18 01:06:12,1374109572,55.24209,-10.0517,9,1,2013-07-18 01:00:00,1374109200,15.02,16,15.8,30,60,55.1992,-10.0556,58,44
58,2013-07-18 02:06:11,1374113171,55.21303,-10.04073,2,2,2013-07-18 02:00:00,1374112800,14.97,13,15.8,30,120,55.1992,-10.0556,58,44
59,2013-07-18 03:06:14,1374116774,55.20787,-10.10259,2,3,2013-07-18 03:00:00,1374116400,14.94,11,15.8,30,0,55.2072,-10.0434,88,44
60,2013-07-18 04:06:10,1374120370,55.18737,-10.10259,2,1,2013-07-18 04:00:00,1374120000,14.95,14,15.8,30,60,55.2072,-10.0434,88,44
61,2013-07-18 05:06:09,1374123969,55.21816,-9.97886,2,0,2013-07-18 05:00:00,1374123600,14.99,13,15.8,30,120,55.2072,-10.0434,88,44
62,2013-07-18 06:06:11,1374127571,55.21816,-9.97886,2,1,2013-07-18 06:00:00,1374127200,15.01,13,15.8,30,0,55.217,-10.0422,64,48
63,2013-07-18 07:06:10,1374131170,55.23692,-10.11362,2,2,2013-07-18 07:00:00,1374130800,15.02,10,15.8,30,60,55.217,-10.0422,64,48
64,2013-07-18 08:06:09,1374134769,55.21303,-10.04073,6,1,2013-07-18 08:00:00,1374134400,15.03,10,15.8,30,120,55.217,-10.0422,64,48
65,2013-07-18 09:06:12,1374138372,55.21303,-10.04073,3,0,2013-07-18 09:00:00,1374138000,15.05,9,15.8,30,0,55.2288,-10.0374,34,44
66,2013-07-18 10:06:09,1374141969,55.20159,-12.80148,192,3,2013-07-18 10:00:00,1374141600,15.07,10,15.8,30,60,55.2288,-10.0374,34,44
67,2013-07-18 11:06:09,1374145569,55.21816,-9.97886,2,2,2013-07-18 11:00:00,1374145200,15.11,11,15.8,30,120,55.2288,-10.0374,34,44
68,2013-07-18 12:06:15,1374149175,55.24153,-10.75488,96,3,2013-07-18 12:00:00,1374148800,15.16,13,15.8,30,0,55.241,-10.015,64,48
69,2013-07-18 13:06:09,1374152769,55.21303,-10.04073,4,1,2013-07-18 13:00:00,1374152400,15.12,11,15.8,30,60,55.241,-10.015,64,48
70,2013-07-18 14:06:09,1374156369,55.26079,-10.18663,67,2,2013-07-18 14:00:00,1374156000,15.2,11,15.8,30,120,55.241,-10.015,64,48
71,2013-07-18 15:06:13,1374159973,55.24209,-10.0517,2,3,2013-07-18 15:00:00,1374159600,15.31,12,15.8,30,0,55.2476,-9.99539999999999,60,44
72,2013-07-18 16:06:11,1374163571,55.27281,-9.92779,80,7,2013-07-18 16:00:00,1374163200,15.34,13,15.8,30,60,55.2476,-9.99539999999999,60,44
73,2013-07-18 17:06:13,1374167173,55.21816,-9.97886,6,2,2013-07-18 17:00:00,1374166800,15.38,12,15.6,30,120,55.2476,-9.99539999999999,60,44
74,2013-07-18 18:06:13,1374170773,55.14656,-6.47882,233,3,2013-07-18 18:00:00,1374170400,15.36,11,15.6,30,0,55.252,-9.9982,64,48
75,2013-07-18 19:06:08,1374174368,55.29679,-10.00068,6,2,2013-07-18 19:00:00,1374174000,15.4,10,15.6,30,60,55.252,-9.9982,64,48
76,2013-07-18 20:06:11,1374177971,55.29679,-10.00068,12,8,2013-07-18 20:00:00,1374177600,15.43,10,15.6,30,120,55.252,-9.9982,64,48
77,2013-07-18 21:06:13,1374181573,55.29164,-10.06269,4,2,2013-07-18 21:00:00,1374181200,15.44,12,15.6,30,0,55.2652,-10.001,12,44
78,2013-07-18 22:06:14,1374185174,55.24723,-9.98976,6,3,2013-07-18 22:00:00,1374184800,15.41,10,15.6,30,60,55.2652,-10.001,12,44
79,2013-07-18 23:06:08,1374188768,55.3019,-9.93865,3,2,2013-07-18 23:00:00,1374188400,15.39,10,15.6,30,120,55.2652,-10.001,12,44
80,2013-07-19 00:06:10,1374192370,55.24723,-9.98976,4,1,2013-07-19 00:00:00,1374192000,15.38,9,15.6,30,0,55.2796,-9.98339999999999,34,48
81,2013-07-19 01:06:10,1374195970,55.51596,-5.90614,265,7,2013-07-19 01:00:00,1374195600,15.39,8,15.6,30,60,55.2796,-9.98339999999999,34,48
82,2013-07-19 02:06:11,1374199571,55.29679,-10.00068,2,4,2013-07-19 02:00:00,1374199200,15.37,9,15.6,30,120,55.2796,-9.98339999999999,34,48
83,2013-07-19 03:06:12,1374203172,55.25234,-9.92779,10,2,2013-07-19 03:00:00,1374202800,15.35,9,15.6,30,0,55.2886,-9.96439999999998,34,44
84,2013-07-19 04:06:08,1374206768,55.3019,-9.93865,3,2,2013-07-19 04:00:00,1374206400,15.28,11,15.6,30,60,55.2886,-9.96439999999998,34,44
85,2013-07-19 05:06:09,1374210369,55.29679,-10.00068,4,0,2013-07-19 05:00:00,1374210000,15.24,11,15.6,30,120,55.2886,-9.96439999999998,34,44
86,2013-07-19 06:06:10,1374213970,55.29679,-10.00068,4,2,2013-07-19 06:00:00,1374213600,15.23,10,15.6,30,0,55.2928,-9.9674,88,44
87,2013-07-19 07:06:08,1374217568,55.2677,-9.98976,2,1,2013-07-19 07:00:00,1374217200,15.21,11,15.6,30,60,55.2928,-9.9674,88,44
88,2013-07-19 08:06:12,1374221172,55.34632,-10.01163,11,1,2013-07-19 08:00:00,1374220800,15.26,12,15.6,30,120,55.2928,-9.9674,88,44
89,2013-07-19 09:06:11,1374224771,55.3019,-9.93865,2,4,2013-07-19 09:00:00,1374224400,15.29,14,15.6,30,0,55.3018,-9.9776,82,48
90,2013-07-19 10:06:09,1374228369,55.20537,-14.95168,326,3,2013-07-19 10:00:00,1374228000,15.34,15,15.6,30,60,55.3018,-9.9776,82,48
91,2013-07-19 11:06:30,1374231990,55.3019,-9.93865,5,3,2013-07-19 11:00:00,1374231600,15.38,15,15.6,30,120,55.3018,-9.9776,82,48
92,2013-07-19 12:06:21,1374235581,55.46946,-12.76219,190,2,2013-07-19 12:00:00,1374235200,15.43,14,15.6,30,0,55.3176,-9.97379999999998,60,48
93,2013-07-19 13:06:11,1374239171,55.32589,-10.01163,1,3,2013-07-19 13:00:00,1374238800,15.47,13,15.6,30,60,55.3176,-9.97379999999998,60,48
94,2013-07-19 14:06:11,1374242771,55.3019,-9.93865,3,3,2013-07-19 14:00:00,1374242400,15.56,16,15.6,30,120,55.3176,-9.97379999999998,60,48
95,2013-07-19 15:06:12,1374246372,55.3019,-9.93865,2,7,2013-07-19 15:00:00,1374246000,15.62,13,15.6,30,0,55.3312,-9.95579999999998,156,44
96,2013-07-19 16:06:09,1374249969,55.27333,-9.16235,84,2,2013-07-19 16:00:00,1374249600,15.65,12,15.6,30,60,55.3312,-9.95579999999998,156,44
97,2013-07-19 17:06:10,1374253570,55.34632,-10.01163,2,2,2013-07-19 17:00:00,1374253200,15.66,14,15.6,30,120,55.3312,-9.95579999999998,156,44
98,2013-07-19 18:06:12,1374257172,55.34151,-8.92347,97,6,2013-07-19 18:00:00,1374256800,15.68,16,15.6,30,0,55.3404,-9.95359999999999,52,44
99,2013-07-19 19:06:10,1374260770,55.35145,-9.94954,3,2,2013-07-19 19:00:00,1374260400,15.66,13,15.6,30,60,55.3404,-9.95359999999999,52,44
100,2013-07-19 20:06:09,1374264369,55.3019,-9.93865,12,4,2013-07-19 20:00:00,1374264000,15.67,14,15.6,30,120,55.3404,-9.95359999999999,52,44
101,2013-07-19 21:06:21,1374267981,55.35145,-9.94954,2,2,2013-07-19 21:00:00,1374267600,15.65,13,15.6,30,0,55.3476,-9.95999999999998,124,44
102,2013-07-19 22:06:52,1374271612,55.32235,-9.93865,5,2,2013-07-19 22:00:00,1374271200,15.6,13,15.6,30,60,55.3476,-9.95999999999998,124,44
103,2013-07-19 23:06:18,1374275178,55.29679,-10.00068,10,1,2013-07-19 23:00:00,1374274800,15.61,14,15.6,54,120,55.3476,-9.95999999999998,124,44
104,2013-07-20 00:06:12,1374278772,55.35145,-9.94954,4,2,2013-07-20 00:00:00,1374278400,15.6,15,15.6,30,0,55.365,-9.9606,94,36
105,2013-07-20 01:06:13,1374282373,55.50095,-7.61975,164,1,2013-07-20 01:00:00,1374282000,15.65,16,15.6,30,60,55.365,-9.9606,94,36
106,2013-07-20 02:06:11,1374285971,55.35145,-9.94954,3,1,2013-07-20 02:00:00,1374285600,15.62,17,15.6,30,120,55.365,-9.9606,94,36
107,2013-07-20 03:06:08,1374289568,55.40098,-9.96044,7,1,2013-07-20 03:00:00,1374289200,15.58,13,15.6,30,0,55.3838,-9.93019999999999,94,48
108,2013-07-20 04:06:12,1374293172,55.35654,-9.88742,2,4,2013-07-20 04:00:00,1374292800,15.56,11,15.6,30,60,55.3838,-9.93019999999999,94,48
109,2013-07-20 05:06:13,1374296773,55.35145,-9.94954,3,1,2013-07-20 05:00:00,1374296400,15.57,12,15.6,30,120,55.3838,-9.93019999999999,94,48
110,2013-07-20 06:06:14,1374300374,55.38057,-9.96044,2,1,2013-07-20 06:00:00,1374300000,15.57,12,15.6,30,0,55.3902,-9.9084,34,48
111,2013-07-20 07:06:12,1374303972,55.3616,-9.82528,15,1,2013-07-20 07:00:00,1374303600,15.59,14,15.6,30,60,55.3902,-9.9084,34,48
112,2013-07-20 08:06:08,1374307568,55.41114,-9.83605,2,1,2013-07-20 08:00:00,1374307200,15.63,9,15.6,30,120,55.3902,-9.9084,34,48
113,2013-07-20 09:06:13,1374311173,55.40098,-9.96044,2,0,2013-07-20 09:00:00,1374310800,15.74,11,15.6,30,0,55.3876,-9.91499999999999,124,48
114,2013-07-20 10:06:16,1374314776,55.35145,-9.94954,7,0,2013-07-20 10:00:00,1374314400,15.82,9,15.6,30,60,55.3876,-9.91499999999999,124,48
115,2013-07-20 11:06:08,1374318368,55.40607,-9.89826,3,3,2013-07-20 11:00:00,1374318000,16.16,11,15.6,30,120,55.3876,-9.91499999999999,124,48
116,2013-07-20 12:06:13,1374321973,55.43011,-9.97137,12,3,2013-07-20 12:00:00,1374321600,16.45,11,15.6,30,0,55.3978,-9.92859999999999,82,16
117,2013-07-20 13:06:10,1374325570,55.43522,-9.90912,6,2,2013-07-20 13:00:00,1374325200,16.47,11,15.6,30,60,55.3978,-9.92859999999999,82,16
118,2013-07-20 14:06:20,1374329180,55.6015,-14.29787,11,2,2013-07-20 14:00:00,1374328800,16.58,11,15.6,30,120,55.3978,-9.92859999999999,82,16
119,2013-07-20 15:06:09,1374332769,55.43522,-9.90912,3,2,2013-07-20 15:00:00,1374332400,16.77,11,15.6,30,0,55.4184,-9.9118,52,44
120,2013-07-20 16:06:12,1374336372,55.51005,-11.34719,114,4,2013-07-20 16:00:00,1374336000,16.77,10,15.6,30,60,55.4184,-9.9118,52,44
121,2013-07-20 17:06:08,1374339968,55.43522,-9.90912,2,2,2013-07-20 17:00:00,1374339600,17.04,10,15.6,30,120,55.4184,-9.9118,52,44
122,2013-07-20 18:06:11,1374343571,55.3568,-9.12017,145,2,2013-07-20 18:00:00,1374343200,17.06,13,15.6,30,0,55.428,-9.88759999999999,34,48
123,2013-07-20 19:06:10,1374347170,55.40607,-9.89826,5,2,2013-07-20 19:00:00,1374346800,17.01,10,15.6,30,60,55.428,-9.88759999999999,34,48
124,2013-07-20 20:06:11,1374350771,55.37718,-8.42466,113,7,2013-07-20 20:00:00,1374350400,16.92,9,15.6,30,120,55.428,-9.88759999999999,34,48
125,2013-07-20 21:06:13,1374354373,55.43522,-9.90912,2,2,2013-07-20 21:00:00,1374354000,16.87,11,15.6,30,0,55.4292,-9.88819999999998,16,44
126,2013-07-20 22:06:09,1374357969,55.43522,-9.90912,3,1,2013-07-20 22:00:00,1374357600,16.84,12,15.6,30,60,55.4292,-9.88819999999998,16,44
127,2013-07-20 23:06:08,1374361568,55.40607,-9.89826,2,1,2013-07-20 23:00:00,1374361200,16.82,10,15.6,30,120,55.4292,-9.88819999999998,16,44
128,2013-07-21 00:06:09,1374365169,55.40607,-9.89826,2,1,2013-07-21 00:00:00,1374364800,16.82,10,15.6,30,0,55.4322,-9.8954,58,44
129,2013-07-21 01:06:11,1374368771,55.46067,-9.84685,24,2,2013-07-21 01:00:00,1374368400,16.76,10,15.6,30,60,55.4322,-9.8954,58,44
130,2013-07-21 02:06:08,1374372368,55.44029,-9.84685,2,1,2013-07-21 02:00:00,1374372000,16.69,10,15.6,30,120,55.4322,-9.8954,58,44
131,2013-07-21 03:06:12,1374375972,55.56992,-7.31383,176,3,2013-07-21 03:00:00,1374375600,16.67,8,15.6,30,0,55.4454,-9.8828,54,48
132,2013-07-21 04:06:16,1374379576,55.43522,-9.90912,2,3,2013-07-21 04:00:00,1374379200,16.63,10,15.6,30,60,55.4454,-9.8828,54,48
133,2013-07-21 05:06:08,1374383168,55.46067,-9.84685,3,1,2013-07-21 05:00:00,1374382800,16.47,10,15.6,30,120,55.4454,-9.8828,54,48
134,2013-07-21 06:06:14,1374386774,55.46571,-9.78456,2,1,2013-07-21 06:00:00,1374386400,16.54,9,15.6,30,0,55.451,-9.858,52,48
135,2013-07-21 07:06:10,1374390370,55.45559,-9.90912,3,6,2013-07-21 07:00:00,1374390000,16.39,11,15.6,30,60,55.451,-9.858,52,48
136,2013-07-21 08:06:09,1374393969,55.45559,-9.90912,3,1,2013-07-21 08:00:00,1374393600,16.29,10,15.6,30,120,55.451,-9.858,52,48
137,2013-07-21 09:06:14,1374397574,55.43522,-9.90912,4,10,2013-07-21 09:00:00,1374397200,16.46,12,15.6,30,0,55.4512,-9.8552,34,48
138,2013-07-21 10:06:08,1374401168,55.48983,-9.85767,6,1,2013-07-21 10:00:00,1374400800,16.49,11,15.6,30,60,55.4512,-9.8552,34,48
139,2013-07-21 11:06:10,1374404770,55.44029,-9.84685,2,3,2013-07-21 11:00:00,1374404400,16.6,16,15.6,30,120,55.4512,-9.8552,34,48
140,2013-07-21 12:06:20,1374408380,55.48475,-9.92001,4,2,2013-07-21 12:00:00,1374408000,16.67,11,15.6,30,0,55.455,-9.85979999999998,64,48
141,2013-07-21 13:06:13,1374411973,55.44029,-9.84685,4,2,2013-07-21 13:00:00,1374411600,16.64,15,15.6,30,60,55.455,-9.85979999999998,64,48
142,2013-07-21 14:06:12,1374415572,55.46571,-9.78456,4,2,2013-07-21 14:00:00,1374415200,16.71,13,15.6,30,120,55.455,-9.85979999999998,64,48
143,2013-07-21 15:06:08,1374419168,55.48475,-9.92001,2,2,2013-07-21 15:00:00,1374418800,16.69,11,15.6,30,0,55.465,-9.85219999999998,34,44
144,2013-07-21 16:06:11,1374422771,55.57583,-11.82004,162,8,2013-07-21 16:00:00,1374422400,16.77,14,15.6,30,60,55.465,-9.85219999999998,34,44
145,2013-07-21 17:06:12,1374426372,55.44029,-9.84685,7,2,2013-07-21 17:00:00,1374426000,16.63,13,15.6,30,120,55.465,-9.85219999999998,34,44
146,2013-07-21 18:06:11,1374429971,55.50855,-10.70135,84,7,2013-07-21 18:00:00,1374429600,16.87,13,15.6,30,0,55.479,-9.83579999999998,88,48
147,2013-07-21 19:06:09,1374433569,55.49488,-9.79531,5,1,2013-07-21 19:00:00,1374433200,16.88,13,15.6,30,60,55.479,-9.83579999999998,88,48
148,2013-07-21 20:06:10,1374437170,55.55247,-10.7754,110,4,2013-07-21 20:00:00,1374436800,16.77,12,15.6,30,120,55.479,-9.83579999999998,88,48
149,2013-07-21 21:06:10,1374440770,55.48983,-9.85767,4,3,2013-07-21 21:00:00,1374440400,16.73,12,15.6,30,0,55.4852,-9.83339999999998,88,44
150,2013-07-21 22:06:09,1374444369,55.46067,-9.84685,14,2,2013-07-21 22:00:00,1374444000,16.7,13,15.6,30,60,55.4852,-9.83339999999998,88,44
151,2013-07-21 23:06:09,1374447969,55.49488,-9.79531,3,8,2013-07-21 23:00:00,1374447600,16.72,14,15.6,30,120,55.4852,-9.83339999999998,88,44
152,2013-07-22 00:06:13,1374451573,55.49488,-9.79531,2,5,2013-07-22 00:00:00,1374451200,16.75,11,15.6,30,0,55.4886,-9.834,82,44
153,2013-07-22 01:06:08,1374455168,55.49323,-10.1803,72,2,2013-07-22 01:00:00,1374454800,16.53,12,15.6,30,60,55.4886,-9.834,82,44
154,2013-07-22 02:06:10,1374458770,55.46067,-9.84685,5,2,2013-07-22 02:00:00,1374458400,16.46,13,15.6,30,120,55.4886,-9.834,82,44
155,2013-07-22 03:06:10,1374462370,55.49919,-8.96275,122,1,2013-07-22 03:00:00,1374462000,16.3,11,15.6,30,0,55.4916,-9.82499999999999,58,44
156,2013-07-22 04:06:11,1374465971,55.49488,-9.79531,3,3,2013-07-22 04:00:00,1374465600,16.37,9,15.6,30,60,55.4916,-9.82499999999999,58,44
157,2013-07-22 05:06:08,1374469568,55.48983,-9.85767,7,1,2013-07-22 05:00:00,1374469200,16.34,10,15.6,30,120,55.4916,-9.82499999999999,58,44
158,2013-07-22 06:06:11,1374473171,55.48983,-9.85767,4,2,2013-07-22 06:00:00,1374472800,16.43,9,15.6,30,0,55.4998,-9.81379999999999,64,48
159,2013-07-22 07:06:08,1374476768,55.48983,-9.85767,5,1,2013-07-22 07:00:00,1374476400,16.45,12,15.6,30,60,55.4998,-9.81379999999999,64,48
160,2013-07-22 08:06:12,1374480372,55.54441,-9.80609,7,2,2013-07-22 08:00:00,1374480000,16.43,12,15.6,30,120,55.4998,-9.81379999999999,64,48
161,2013-07-22 09:06:12,1374483972,55.48983,-9.85767,4,0,2013-07-22 09:00:00,1374483600,16.4,12,15.6,30,0,55.5074,-9.81279999999998,34,48
162,2013-07-22 10:06:11,1374487571,55.49991,-9.73293,1,1,2013-07-22 10:00:00,1374487200,16.62,11,15.6,30,60,55.5074,-9.81279999999998,34,48
163,2013-07-22 11:06:11,1374491171,55.49488,-9.79531,7,3,2013-07-22 11:00:00,1374490800,16.73,10,15.6,30,120,55.5074,-9.81279999999998,34,48
164,2013-07-22 12:06:09,1374494769,55.49991,-9.73293,2,2,2013-07-22 12:00:00,1374494400,16.72,11,15.6,30,0,55.5088,-9.81059999999999,64,48
165,2013-07-22 13:06:09,1374498369,55.48983,-9.85767,1,2,2013-07-22 13:00:00,1374498000,16.91,12,15.6,30,60,55.5088,-9.81059999999999,64,48
166,2013-07-22 14:06:11,1374501971,55.48983,-9.85767,3,5,2013-07-22 14:00:00,1374501600,16.84,12,15.6,30,120,55.5088,-9.81059999999999,64,48
167,2013-07-22 15:06:09,1374505569,55.49488,-9.79531,2,3,2013-07-22 15:00:00,1374505200,16.91,12,15.6,30,0,55.5084,-9.8074,64,48
168,2013-07-22 16:06:09,1374509169,55.49991,-9.73293,4,3,2013-07-22 16:00:00,1374508800,16.96,12,15.6,30,60,55.5084,-9.8074,64,48
169,2013-07-22 17:06:08,1374512768,55.48983,-9.85767,2,3,2013-07-22 17:00:00,1374512400,17.26,12,15.6,30,120,55.5084,-9.8074,64,48
170,2013-07-22 18:06:21,1374516381,55.69759,-13.09478,220,2,2013-07-22 18:00:00,1374516000,17.16,12,15.6,30,0,55.5198,-9.8004,64,48
171,2013-07-22 19:06:08,1374519968,55.54441,-9.80609,3,3,2013-07-22 19:00:00,1374519600,17.15,13,15.6,30,60,55.5198,-9.8004,64,48
172,2013-07-22 20:06:08,1374523568,55.53218,-10.31618,125,3,2013-07-22 20:00:00,1374523200,17.07,13,15.6,30,120,55.5198,-9.8004,64,48
173,2013-07-22 21:06:08,1374527168,55.54944,-9.74364,2,3,2013-07-22 21:00:00,1374526800,16.98,13,15.6,30,0,55.5262,-9.8014,34,44
174,2013-07-22 22:06:08,1374530768,55.49488,-9.79531,8,2,2013-07-22 22:00:00,1374530400,16.91,11,15.6,30,60,55.5262,-9.8014,34,44
175,2013-07-22 23:06:08,1374534368,55.49488,-9.79531,6,4,2013-07-22 23:00:00,1374534000,16.87,9,15.6,30,120,55.5262,-9.8014,34,44
176,2013-07-23 00:06:15,1374537975,55.49488,-9.79531,4,2,2013-07-23 00:00:00,1374537600,16.88,11,15.6,30,0,55.5272,-9.81180000000001,34,44
177,2013-07-23 01:06:15,1374541575,55.44207,-11.84307,146,3,2013-07-23 01:00:00,1374541200,16.82,11,15.6,30,60,55.5272,-9.81180000000001,34,44
178,2013-07-23 02:06:08,1374545168,55.54441,-9.80609,3,2,2013-07-23 02:00:00,1374544800,16.85,10,15.6,30,120,55.5272,-9.81180000000001,34,44
179,2013-07-23 03:06:12,1374548772,55.60298,-8.91984,100,2,2013-07-23 03:00:00,1374548400,16.84,11,15.6,30,0,55.5268,-9.80199999999999,34,44
180,2013-07-23 04:06:11,1374552371,55.49488,-9.79531,2,4,2013-07-23 04:00:00,1374552000,16.93,10,15.6,30,60,55.5268,-9.80199999999999,34,44
181,2013-07-23 05:06:20,1374555980,55.5715,-8.65936,99,1,2013-07-23 05:00:00,1374555600,16.88,7,15.6,30,120,55.5268,-9.80199999999999,34,44
182,2013-07-23 06:06:10,1374559570,55.49488,-9.79531,2,7,2013-07-23 06:00:00,1374559200,16.84,7,15.6,30,0,55.5266,-9.79139999999998,34,48
183,2013-07-23 07:06:08,1374563168,55.51018,-9.85767,3,1,2013-07-23 07:00:00,1374562800,16.86,7,15.6,30,60,55.5266,-9.79139999999998,34,48
184,2013-07-23 08:06:08,1374566768,55.54944,-9.74364,1,2,2013-07-23 08:00:00,1374566400,16.92,6,15.6,30,120,55.5266,-9.79139999999998,34,48
185,2013-07-23 09:06:08,1374570368,55.53935,-9.86852,3,1,2013-07-23 09:00:00,1374570000,16.92,6,15.6,30,0,55.5306,-9.7936,34,48
186,2013-07-23 10:06:11,1374573971,55.49488,-9.79531,5,1,2013-07-23 10:00:00,1374573600,16.98,9,15.6,30,60,55.5306,-9.7936,34,48
187,2013-07-23 11:06:08,1374577568,55.53935,-9.86852,2,2,2013-07-23 11:00:00,1374577200,17.01,10,15.6,30,120,55.5306,-9.7936,34,48
188,2013-07-23 12:06:12,1374581172,55.53935,-9.86852,2,2,2013-07-23 12:00:00,1374580800,17.03,10,15.6,30,0,55.5308,-9.804,34,48
189,2013-07-23 13:06:11,1374584771,55.54441,-9.80609,8,2,2013-07-23 13:00:00,1374584400,17.14,10,15.6,30,60,55.5308,-9.804,34,48
190,2013-07-23 14:06:09,1374588369,55.49991,-9.73293,3,2,2013-07-23 14:00:00,1374588000,17.28,10,15.6,30,120,55.5308,-9.804,34,48
191,2013-07-23 15:06:12,1374591972,55.54944,-9.74364,4,7,2013-07-23 15:00:00,1374591600,17.24,12,15.6,30,0,55.533,-9.8006,34,48
192,2013-07-23 16:06:12,1374595572,55.51523,-9.79531,3,5,2013-07-23 16:00:00,1374595200,17.19,12,15.6,30,60,55.533,-9.8006,34,48
193,2013-07-23 17:06:08,1374599168,55.54441,-9.80609,3,9,2013-07-23 17:00:00,1374598800,17.37,9,15.6,30,120,55.533,-9.8006,34,48
194,2013-07-23 18:06:08,1374602768,55.7419,-13.24782,236,6,2013-07-23 18:00:00,1374602400,17.24,7,15.6,30,0,55.5382,-9.7876,34,48
195,2013-07-23 19:06:08,1374606368,55.49488,-9.79531,6,8,2013-07-23 19:00:00,1374606000,17.07,9,15.6,30,60,55.5382,-9.7876,34,48
196,2013-07-23 20:06:08,1374609968,55.69245,-12.57021,191,2,2013-07-23 20:00:00,1374609600,17.28,10,15.6,30,120,55.5382,-9.7876,34,48
197,2013-07-23 21:06:08,1374613568,55.54441,-9.80609,1,2,2013-07-23 21:00:00,1374613200,17.02,10,15.6,30,0,55.5418,-9.78379999999999,34,48
198,2013-07-23 22:06:18,1374617178,55.54441,-9.80609,3,2,2013-07-23 22:00:00,1374616800,16.96,10,15.6,30,60,55.5418,-9.78379999999999,34,48
199,2013-07-23 23:06:08,1374620768,55.52025,-9.73293,2,2,2013-07-23 23:00:00,1374620400,16.87,14,15.6,30,120,55.5418,-9.78379999999999,34,48
200,2013-07-24 00:06:11,1374624371,55.49488,-9.79531,2,2,2013-07-24 00:00:00,1374624000,16.8,13,15.6,30,0,55.544,-9.79939999999999,58,44
201,2013-07-24 01:06:08,1374627968,55.54441,-9.80609,3,4,2013-07-24 01:00:00,1374627600,16.8,14,15.6,30,60,55.544,-9.79939999999999,58,44
202,2013-07-24 02:06:21,1374631581,55.54944,-9.74364,2,1,2013-07-24 02:00:00,1374631200,16.81,11,15.6,30,120,55.544,-9.79939999999999,58,44
203,2013-07-24 03:06:11,1374635171,55.49243,-11.53336,128,1,2013-07-24 03:00:00,1374634800,16.77,13,15.6,30,0,55.5464,-9.79499999999999,34,48
204,2013-07-24 04:06:08,1374638768,55.54441,-9.80609,2,1,2013-07-24 04:00:00,1374638400,16.76,11,15.6,30,60,55.5464,-9.79499999999999,34,48
205,2013-07-24 05:06:09,1374642369,55.54441,-9.80609,3,3,2013-07-24 05:00:00,1374642000,16.69,11,15.6,30,120,55.5464,-9.79499999999999,34,48
206,2013-07-24 06:06:08,1374645968,55.54944,-9.74364,2,2,2013-07-24 06:00:00,1374645600,16.69,10,15.6,30,0,55.5462,-9.78639999999999,34,48
207,2013-07-24 07:06:10,1374649570,55.61372,-8.34557,112,2,2013-07-24 07:00:00,1374649200,16.7,13,15.6,30,60,55.5462,-9.78639999999999,34,48
208,2013-07-24 08:06:10,1374653170,55.54441,-9.80609,3,1,2013-07-24 08:00:00,1374652800,16.64,14,15.6,30,120,55.5462,-9.78639999999999,34,48
209,2013-07-24 09:06:17,1374656777,55.54441,-9.80609,11,1,2013-07-24 09:00:00,1374656400,16.61,11,15.6,30,0,55.5512,-9.7792,64,48
210,2013-07-24 10:06:13,1374660373,55.57865,-9.75438,5,1,2013-07-24 10:00:00,1374660000,16.66,14,15.6,30,60,55.5512,-9.7792,64,48
211,2013-07-24 11:06:11,1374663971,55.54944,-9.74364,3,2,2013-07-24 11:00:00,1374663600,16.72,13,15.6,30,120,55.5512,-9.7792,64,48
212,2013-07-24 12:06:11,1374667571,55.59392,-9.8169,4,4,2013-07-24 12:00:00,1374667200,16.69,15,15.6,30,0,55.5548,-9.7938,124,48
213,2013-07-24 13:06:09,1374671169,55.54441,-9.80609,6,2,2013-07-24 13:00:00,1374670800,16.67,16,15.6,30,60,55.5548,-9.7938,124,48
214,2013-07-24 14:06:09,1374674769,55.54944,-9.74364,2,2,2013-07-24 14:00:00,1374674400,16.57,15,15.6,30,120,55.5548,-9.7938,124,48
215,2013-07-24 15:06:09,1374678369,55.57361,-9.8169,2,3,2013-07-24 15:00:00,1374678000,16.58,14,15.6,30,0,55.5582,-9.79559999999998,88,48
216,2013-07-24 16:06:11,1374681971,55.54441,-9.80609,12,6,2013-07-24 16:00:00,1374681600,16.64,14,15.6,30,60,55.5582,-9.79559999999998,88,48
217,2013-07-24 17:06:10,1374685570,55.54944,-9.74364,9,5,2013-07-24 17:00:00,1374685200,16.64,15,15.6,30,120,55.5582,-9.79559999999998,88,48
218,2013-07-24 18:06:14,1374689174,55.856,-14.81193,327,4,2013-07-24 18:00:00,1374688800,16.67,14,15.6,30,0,55.5622,-9.7868,60,44
219,2013-07-24 19:06:10,1374692770,55.54441,-9.80609,2,8,2013-07-24 19:00:00,1374692400,16.64,12,15.6,30,60,55.5622,-9.7868,60,44
220,2013-07-24 20:06:08,1374696368,55.59392,-9.8169,10,2,2013-07-24 20:00:00,1374696000,16.7,13,15.6,30,120,55.5622,-9.7868,60,44
221,2013-07-24 21:06:12,1374699972,55.59392,-9.8169,5,5,2013-07-24 21:00:00,1374699600,16.64,12,15.6,30,0,55.5694,-9.77599999999998,58,48
222,2013-07-24 22:06:09,1374703569,55.54441,-9.80609,2,2,2013-07-24 22:00:00,1374703200,16.6,12,15.6,30,60,55.5694,-9.77599999999998,58,48
223,2013-07-24 23:06:11,1374707171,55.59896,-9.75438,3,7,2013-07-24 23:00:00,1374706800,16.63,10,15.6,30,120,55.5694,-9.77599999999998,58,48
224,2013-07-25 00:06:09,1374710769,55.54944,-9.74364,2,1,2013-07-25 00:00:00,1374710400,16.66,12,15.6,30,0,55.5708,-9.77459999999999,52,48
225,2013-07-25 01:06:11,1374714371,55.4971,-14.405,298,3,2013-07-25 01:00:00,1374714000,16.62,14,15.6,30,60,55.5708,-9.77459999999999,52,48
226,2013-07-25 02:06:18,1374717978,55.54441,-9.80609,2,3,2013-07-25 02:00:00,1374717600,16.61,14,15.6,30,120,55.5708,-9.77459999999999,52,48
227,2013-07-25 03:06:08,1374721568,55.40927,-13.13197,231,1,2013-07-25 03:00:00,1374721200,16.57,12,15.6,30,0,55.5682,-9.7704,30,48